Location: Red Rock Farm
(35.2100°N, 97.2200°W)
Time: 11:10:50
(UTC-05:00)

ISS - All Passes

Search period start: 23 June 2018 00:00
Search period end: 03 July 2018 00:00
Orbit: 403 x 408 km, 51.6° (Epoch: 24 June)

Date Brightness Start Highest point End Pass type
(mag) Time Alt. Az. Time Alt. Az. Time Alt. Az.
23 Jun - 08:43:21 10° SW 08:46:38 86° NW 08:49:56 10° NE daylight
23 Jun - 10:22:07 10° NW 10:23:34 12° NNW 10:25:01 10° N daylight
23 Jun - 15:14:04 10° NNW 15:16:55 26° NE 15:19:45 10° E daylight
23 Jun - 16:50:36 10° WNW 16:53:21 25° SW 16:56:05 10° S daylight
24 Jun - 07:51:32 10° SSW 07:54:39 42° SE 07:57:47 10° ENE daylight
24 Jun - 09:28:50 10° W 09:31:16 19° NNW 09:33:43 10° NNE daylight
24 Jun - 14:22:31 10° NNW 14:24:41 16° NNE 14:26:51 10° ENE daylight
24 Jun - 15:58:11 10° WNW 16:01:24 54° SW 16:04:36 10° SSE daylight
25 Jun - 07:00:15 10° S 07:02:43 20° SE 07:05:13 10° E daylight
25 Jun - 08:36:04 10° WSW 08:39:03 32° NW 08:42:04 10° NNE daylight
25 Jun - 13:31:29 10° N 13:32:21 11° NNE 13:33:14 10° NE daylight
25 Jun - 15:06:06 10° NW 15:09:23 67° NE 15:12:37 10° SE daylight
26 Jun - 07:43:40 10° WSW 07:46:55 64° NW 07:50:12 10° NE daylight
26 Jun - 09:23:13 10° NW 09:23:58 11° NNW 09:24:42 10° N daylight
26 Jun - 14:14:13 10° NNW 14:17:14 33° NE 14:20:15 10° ESE daylight
26 Jun - 15:51:08 10° W 15:53:33 19° SW 15:55:57 10° S daylight
27 Jun - 06:51:38 10° SW 06:54:52 57° SE 06:58:06 10° NE daylight
27 Jun - 08:29:28 10° WNW 08:31:36 16° NNW 08:33:44 10° NNE daylight
27 Jun - 13:22:32 10° NNW 13:25:01 19° NNE 13:27:28 10° E daylight
27 Jun - 14:58:30 10° WNW 15:01:36 40° SW 15:04:41 10° SSE daylight
28 Jun - 06:00:05 10° S 06:02:52 26° SE 06:05:41 10° ENE daylight
28 Jun - 07:36:30 10° W 07:39:18 26° NW 07:42:08 10° NNE daylight
28 Jun - 12:31:09 10° N 12:32:40 13° NNE 12:34:10 10° NE daylight
28 Jun - 14:06:17 10° NW 14:09:34 89° NE 14:12:50 10° SE daylight
29 Jun - 05:09:25 10° SSE 05:10:57 13° SE 05:12:30 10° E visible
29 Jun - 06:43:55 10° WSW 06:47:06 48° NW 06:50:18 10° NE daylight
29 Jun - 13:14:17 10° NW 13:17:26 42° NE 13:20:34 10° ESE daylight
29 Jun - 14:51:44 10° W 14:53:38 15° SW 14:55:32 10° SSW daylight
30 Jun - 05:51:42 10° SW 05:54:58 78° SE 05:58:16 10° NE daylight
30 Jun - 07:30:04 10° WNW 07:31:49 14° NNW 07:33:35 10° N daylight
30 Jun - 12:22:28 10° NNW 12:25:12 23° NNE 12:27:54 10° E daylight
30 Jun - 13:58:45 10° WNW 14:01:41 30° SW 14:04:35 10° SSE daylight
01 Jul - 04:59:55 10° SSW 05:02:55 34° SE 05:05:57 10° ENE visible
01 Jul - 06:36:51 10° W 06:39:27 21° NNW 06:42:04 10° NNE daylight
01 Jul - 11:30:54 10° N 11:32:51 15° NNE 11:34:47 10° ENE daylight
01 Jul - 13:06:22 10° NW 13:09:38 68° SW 13:12:53 10° SE daylight
02 Jul - 04:08:46 10° S 04:10:56 17° SE 04:13:07 10° E visible
02 Jul - 05:44:06 10° WSW 05:47:11 37° NW 05:50:17 10° NNE visible
02 Jul - 12:14:15 10° NW 12:17:30 54° NE 12:20:43 10° ESE daylight
02 Jul - 13:52:34 10° WSW 13:53:36 11° SW 13:54:37 10° SW daylight
